#timestamp,LO_Frequency,Hit 
1503694815.5,286046997.0,N
1503694835.3,286046996.0,N
1503694855.2,286046996.3,N
1503694875.9,286046995.9,N
1503694895.7,286046995.3,N
1503694915.6,286046996.3,N
1503694935.4,286046995.4,N
1503694955.2,286047000.8,N
1503694975.1,286047002.7,N
1503694976.0,286047002.7,N
1503694995.8,286047002.5,N
1503695015.6,286047002.4,N
1503695035.5,286046993.5,N
1503695055.3,286046992.7,N
1503695075.1,286046996.3,N
1503695095.8,286046993.3,N
1503695115.7,286046995.9,N
1503695135.5,286046999.6,N
1503695155.3,286046999.3,N
1503695175.2,286046996.9,N
1503695195.9,286046999.3,N
1503695215.7,286046999.1,N
1503695235.6,286046997.2,N
1503695255.4,286046999.4,N
1503695275.2,286046999.9,N
1503695295.1,286046998.5,N
1503695296.0,286046998.5,N
1503695315.8,286047002.3,N
1503695335.6,286047005.5,N
1503695355.5,286047007.5,N
1503695375.3,286047006.8,N
1503695395.1,286047005.0,N
1503695415.8,286047004.6,N
1503695435.7,286047002.9,N
1503695455.5,286047005.7,N
1503695475.3,286047005.0,N
1503695495.2,286047008.8,N
1503695515.0,286047008.9,N
1503695515.9,286047008.9,N
1503695535.7,286047009.6,N
1503695555.6,286047010.6,N
1503695575.4,286047011.8,N
1503695595.2,286047015.4,N
1503695615.1,286047015.0,N
1503695616.0,286047015.0,N
1503695635.8,286047018.7,P
1503695655.6,286047011.6,N
1503695675.5,286047010.8,N
1503695695.3,286047010.5,N
1503695715.1,286047008.0,N
1503695735.9,286047006.9,N
1503695755.7,286047006.2,N
1503695775.5,286047008.7,N
1503695795.4,286047007.9,N
1503695815.2,286047009.0,N
1503695835.0,286047008.0,N
1503695835.9,286047008.0,N
1503695855.8,286047010.7,P
1503695875.6,286046998.4,N
1503695895.4,286046998.8,N
1503695915.3,286046998.9,N
1503695935.1,286046997.0,N
1503695936.0,286046997.0,N
1503695955.8,286046998.4,N
1503695975.7,286047000.1,N
1503695995.5,286046998.7,N
1503696015.3,286046997.9,N
1503696035.2,286046993.6,N
1503696055.9,286046995.8,N
1503696075.7,286046994.4,N
1503696095.5,286046991.7,N
1503696115.4,286046992.1,N
1503696135.2,286046992.2,N
1503696155.0,286046997.1,N
1503696155.9,286046997.1,N
1503696175.8,286046998.4,N
1503696195.6,286047000.4,N
1503696215.7,286047002.0,N
1503696235.6,286047002.2,N
1503696255.4,286047001.5,N
1503696275.2,286047002.8,N
1503696295.1,286047002.6,N
1503696296.0,286047002.6,N
1503696315.8,286047003.1,N
1503696335.6,286047003.1,N
1503696355.5,286047003.8,N
1503696375.3,286047003.2,N
1503696395.1,286047001.5,N
1503696415.9,286047002.1,N
1503696435.7,286047002.7,N
1503696455.5,286047002.2,N
1503696475.6,286047002.3,N
1503696495.4,286047002.8,N
1503696515.3,286047000.2,N
1503696535.1,286047000.6,N
1503696555.8,286046999.7,N
1503696575.7,286047002.2,N
1503696595.5,286047004.1,N
1503696615.3,286047003.5,N
1503696635.2,286047005.5,N
1503696655.9,286047003.5,N
1503696675.7,286047003.9,N
1503696695.6,286047001.8,N
1503696715.4,286047002.5,N
1503696735.2,286047002.5,N
1503696755.1,286047004.0,N
1503696756.0,286047004.0,P
1503696775.8,286046999.3,N
1503696795.6,286046996.6,N
1503696815.5,286046997.8,N
1503696835.3,286046996.2,N
1503696855.1,286046991.4,N
1503696875.9,286046991.5,N
1503696895.7,286046993.1,N
1503696915.7,286046992.5,N
1503696935.6,286046996.1,N
1503696955.4,286046998.2,N
1503696975.2,286046996.6,N
1503696995.1,286046996.6,N
1503696996.0,286046996.6,N
1503697015.8,286046996.9,N
1503697035.6,286046998.9,N
1503697055.5,286046999.4,N
1503697075.3,286046998.0,N
1503697095.1,286046997.7,N
1503697115.9,286046995.7,N
1503697135.6,286046993.8,N
1503697155.4,286046996.5,N
1503697175.2,286046997.1,N
1503697195.1,286046995.7,N
1503697196.0,286046995.7,N
1503697215.8,286046992.5,N
1503697235.7,286046990.4,P
1503697255.5,286046995.1,N
1503697275.3,286046995.8,N
1503697295.2,286046999.7,N
1503697315.9,286047001.8,N
1503697335.7,286047001.4,N
1503697355.5,286046999.8,N
1503697375.4,286047000.0,N
1503697395.2,286047000.7,N
1503697415.0,286047000.7,N
1503697415.9,286047000.7,N
1503697435.8,286046999.2,N
1503697455.6,286047001.2,N
1503697475.4,286047000.3,N
1503697495.3,286047004.0,N
1503697515.1,286047004.8,N
1503697516.0,286047004.8,N
1503697535.8,286047004.7,N
1503697555.7,286047005.5,N
1503697575.5,286047002.9,N
1503697595.3,286047002.0,N
1503697615.2,286047000.2,N
1503697635.9,286047002.3,N
1503697655.7,286047002.5,N
1503697675.5,286046999.8,N
1503697695.4,286047002.1,N
1503697715.2,286047001.3,N
1503697735.0,286047005.6,N
1503697735.9,286047005.6,N
1503697755.8,286047006.0,N
1503697775.6,286047004.6,N
1503697795.4,286047004.1,N
1503697815.3,286047003.1,N
1503697835.1,286047001.5,N
1503697836.0,286047001.5,N
1503697855.8,286046999.5,N
1503697875.7,286046998.5,N
1503697895.5,286046997.3,N
1503697915.3,286046996.6,N
1503697935.2,286047001.1,N
1503697955.9,286046996.9,N
1503697975.7,286046999.3,N
1503697995.6,286046995.0,N
1503698015.4,286046996.4,N
1503698035.2,286046997.6,N
1503698055.0,286046998.3,N
1503698056.0,286046998.3,N
1503698075.8,286046998.5,N
1503698095.6,286047000.9,N
1503698115.4,286046999.6,N
1503698135.3,286047000.3,N
1503698155.1,286047000.1,N
1503698175.8,286047002.8,N
1503698195.7,286047001.5,N
1503698215.5,286047001.8,N
1503698235.3,286047002.4,N
1503698255.2,286047001.0,N
1503698275.9,286046999.5,N
1503698295.7,286046999.4,N
1503698315.6,286046999.2,N
1503698335.4,286046999.3,N
1503698355.2,286046999.0,N
1503698375.0,286046995.4,N
1503698376.0,286046995.4,N
1503698395.8,286046997.3,N
